[[{"header":{"parameterUnit":"m.s-1","parameterCategory":1,"la1":30.2991,"la2":30.254,"lo1":-89.0895,"lo2":-89.0444,"dy":0.0017,"dx":0.0017,"nx":28,"ny":28,"refTime":"2024-12-11T03:00:00:Z","depth":0,"parameterNumber":2,"parameterNumberName":"U-component_of_WINDS"},"data":[0,0,0,0,0,0,0,0,0,0,0,0,0,0,0,0,0,0,0,0,0,0,0,0,0,0,0,0,0,0,0,0,0,0,0,0,0,0,0,0,0,0,0,0,0,0,0,0,0,0,0,0,0,0,0,0,0,0,2.9014,2.9015,0,2.9052,2.9052,2.9052,2.8983,2.898,2.8978,2.8976,2.9014,2.9017,2.9021,0,0,0,0,0,0,0,0,0,0,0,0,0,2.8884,2.8887,2.9014,2.9015,2.9015,2.9052,2.9052,2.9053,2.8983,2.898,2.8977,2.8975,2.9013,2.9017,2.9021,0,0,0,0,0,0,0,0,0,0,0,0,0,2.8933,2.8887,2.9014,2.8985,2.8983,2.9051,2.9052,2.9053,2.8984,2.898,2.8977,2.8973,2.9012,2.9017,2.9021,2.912,0,0,2.9036,2.9038,0,0,0,0,0,0,0,0,2.893,2.8938,2.8989,2.8987,2.8985,2.9009,2.902,2.9075,2.8985,2.8983,2.8976,2.8972,2.9015,2.902,2.9034,2.9122,2.9124,2.9036,2.9039,2.9041,2.9043,0,0,0,0,0,0,0,2.8927,2.8936,2.9029,2.899,2.8987,2.897,2.8973,2.903,2.9018,2.8983,2.8978,2.8984,2.9014,2.903,2.9035,2.9124,2.9036,2.9041,2.9043,2.9045,2.9297,2.93,0,0,0,0,0,0,2.8927,2.8933,2.9028,2.903,2.8948,2.8975,2.8979,2.9005,2.9018,2.9016,2.8986,2.898,2.9023,2.9029,2.9036,2.9153,2.9041,2.9046,2.9049,2.9293,2.9297,2.9302,0,0,0,0,0,0,2.8924,2.8936,2.9026,2.898,2.8991,2.8981,2.9011,2.9007,2.9023,2.902,2.9018,2.9005,2.9021,2.9029,2.91,2.9154,2.9048,2.9052,2.9288,2.9294,2.9299,2.9389,0,0,0,0,0,0,2.8921,2.8936,2.8973,2.8982,2.8993,2.909,2.9014,2.901,2.9032,2.9024,2.9037,2.9036,2.9019,2.9093,2.9105,2.9158,2.9056,2.9283,2.9291,2.9298,2.9381,2.9397,2.9411,0,0,0,0,0,2.8917,2.8997,2.8975,2.8987,2.904,2.9093,2.91,2.9079,2.9036,2.9074,2.9072,2.9035,2.9146,2.9101,2.9114,2.9169,2.928,2.9289,2.9297,2.9375,2.9394,2.941,0,0,0,0,0,0,2.8994,2.8997,2.8973,2.9059,2.9076,2.9082,2.9128,2.91,2.913,2.9121,2.9093,2.9097,2.9174,2.9178,2.9129,2.9266,2.9206,2.9217,2.9261,2.9279,2.9293,2.9291,2.906,0,0,0,0,0,2.9021,2.9064,2.9065,2.914,2.915,2.9138,2.916,2.9142,2.916,2.9167,2.917,2.9188,2.9227,2.9253,2.9288,2.9381,2.9384,2.9426,2.9441,2.9453,2.9463,2.9513,2.9532,2.933,2.933,2.9329,0,0,2.9078,2.9085,2.9113,2.9156,2.9167,2.9213,2.9145,2.9196,2.9229,2.9174,2.9242,2.9245,2.9264,2.9346,2.9383,2.9353,2.952,2.9464,2.9473,2.9477,2.9524,2.9543,2.9561,2.9335,2.9334,2.9333,0,0,2.9204,2.9213,2.9277,2.929,2.9309,2.93,2.9316,2.9326,2.9326,2.9393,2.9353,2.9393,2.946,2.9475,2.9491,2.9624,2.9592,2.9636,2.9714,2.9763,2.9779,2.9793,2.9841,2.9859,2.9647,2.9647,2.9647,0,2.9272,2.9339,2.9314,2.9368,2.9388,2.934,2.9406,2.9419,2.9449,2.9464,2.9429,2.9513,2.9522,2.9608,2.9641,2.9655,2.9673,2.9635,2.9779,2.9792,2.9805,2.9851,2.9869,2.9652,2.9652,2.9651,2.9651,0,2.9422,2.9469,2.9518,2.9548,2.9574,2.9633,2.9618,2.9646,2.9626,2.9622,2.9691,2.9701,2.9737,2.9756,2.9737,2.984,2.9821,2.9783,2.9722,2.983,2.9873,2.989,2.966,2.9658,2.9656,2.9655,0,0,2.9598,2.9614,2.9632,2.9645,2.9663,2.9699,2.9756,2.9792,2.9818,2.984,2.9888,2.9946,2.9911,2.993,2.9912,2.9955,3.0061,2.9912,2.9912,2.994,3.0176,3.0205,3.0225,3.0039,3.0043,3.0045,3.0175,0,2.9724,2.9823,2.9802,2.99,2.9943,2.9899,2.9949,2.9965,2.9963,2.9999,2.9996,3.0038,2.9989,3.0,3.0041,3.004,3.0108,3.003,3.0084,3.0087,3.0082,3.0247,3.0278,3.04,3.0191,3.0194,3.0196,0,2.9884,2.9912,3.0014,3.0025,3.0042,3.0088,3.012,3.0155,3.0173,3.0168,3.0189,3.0163,3.0221,3.0158,3.0237,3.0185,3.0206,3.0209,3.0213,3.0217,3.0148,3.0257,3.0438,3.0457,3.0222,3.0219,3.0218,0,3.0004,3.0067,3.0136,3.0149,3.0163,3.0196,3.0203,3.0217,3.0241,3.0268,3.0283,3.0318,3.0337,3.0364,3.0348,3.0304,3.043,3.0366,3.0428,3.0429,3.0457,3.0456,3.0644,3.047,3.0469,3.0469,3.0469,0,3.0147,3.0211,3.019,3.0233,3.0304,3.028,3.035,3.0352,3.0366,3.0408,3.0372,3.0412,3.0388,3.0427,3.0415,3.0483,3.0492,3.049,3.0486,3.0493,3.0494,3.0507,3.0498,3.0474,3.0473,3.0472,3.0471,0,3.0293,3.0281,3.0354,3.0361,3.0365,3.0417,3.0423,3.0463,3.0457,3.0512,3.0523,3.0515,3.0559,3.0546,3.0593,3.0585,3.0671,3.0656,3.0666,3.0662,3.0725,3.0719,3.0929,3.0956,3.0764,3.0766,3.0767,0,3.0385,3.0434,3.0446,3.0472,3.0482,3.0525,3.0548,3.0527,3.0553,3.0577,3.0614,3.0655,3.0687,3.0759,3.0758,3.0794,3.078,3.0851,3.0785,3.0791,3.0782,3.0779,3.0784,3.0864,3.0866,3.0868,3.087,0,3.0551,3.0543,3.0578,3.0612,3.0642,3.0667,3.0689,3.0713,3.0693,3.0724,3.0769,3.0793,3.0842,3.0883,3.0917,3.0924,3.0894,3.089,3.0907,3.0915,3.0919,3.0918,3.0702,3.0886,3.0884,3.0883,3.0882,3.0881,3.0673,3.0714,3.073,3.0771,3.0786,3.0807,3.0846,3.0845,3.0882,3.092,3.0905,3.0957,3.0973,3.1015,3.1027,3.1067,3.104,3.1063,3.1069,3.1076,3.1084,3.0912,3.1073,3.1072,3.1072,3.1072,3.1071,0,3.0838,3.0846,3.0883,3.0916,3.0948,3.0917,3.094,3.0969,3.1015,3.1033,3.1065,3.1117,3.1157,3.1159,3.1196,3.1228,3.1216,3.1239,3.1237,3.1239,3.1106,3.1088,3.1249,3.1249,3.1249,3.1249,3.1249,3.1249,3.0927,3.0995,3.0989,3.1065,3.1072,3.1122,3.1138,3.1159,3.1173,3.1233,3.1266,3.1266,3.1278,3.1316,3.1352,3.1351,3.1367,3.1396,3.139,3.1266,3.1248,3.1231,3.1215,3.1399,3.1399,3.152,3.1521,3.1522]},{"header":{"parameterUnit":"m.s-1","parameterCategory":1,"la1":30.2991,"la2":30.254,"lo1":-89.0895,"lo2":-89.0444,"dy":0.0017,"dx":0.0017,"nx":28,"ny":28,"refTime":"2024-12-11T03:00:00:Z","depth":0,"parameterNumber":3,"parameterNumberName":"V-component_of_WINDS"},"data":[0,0,0,0,0,0,0,0,0,0,0,0,0,0,0,0,0,0,0,0,0,0,0,0,0,0,0,0,0,0,0,0,0,0,0,0,0,0,0,0,0,0,0,0,0,0,0,0,0,0,0,0,0,0,0,0,0,0,-3.8921,-3.8923,0,-3.9109,-3.9112,-3.9114,-3.908,-3.9076,-3.9073,-3.907,-3.9264,-3.9272,-3.9281,0,0,0,0,0,0,0,0,0,0,0,0,0,-3.8534,-3.8541,-3.8921,-3.8923,-3.8925,-3.9109,-3.9112,-3.9114,-3.908,-3.9076,-3.9072,-3.9068,-3.9262,-3.9271,-3.9281,0,0,0,0,0,0,0,0,0,0,0,0,0,-3.871,-3.8543,-3.892,-3.8931,-3.8933,-3.9109,-3.9112,-3.9115,-3.9081,-3.9076,-3.9071,-3.9066,-3.9258,-3.9271,-3.9283,-3.946,0,0,-3.9321,-3.9326,0,0,0,0,0,0,0,0,-3.87,-3.8724,-3.8927,-3.893,-3.8934,-3.9066,-3.9046,-3.9231,-3.9082,-3.9025,-3.907,-3.9064,-3.9203,-3.9219,-3.9266,-3.9469,-3.9477,-3.9322,-3.9329,-3.9335,-3.9338,0,0,0,0,0,0,0,-3.8688,-3.8716,-3.8995,-3.893,-3.8934,-3.8927,-3.8946,-3.9081,-3.914,-3.903,-3.9028,-3.905,-3.9203,-3.9254,-3.927,-3.948,-3.9322,-3.9333,-3.934,-3.9345,-3.9841,-3.9846,0,0,0,0,0,0,-3.8672,-3.8706,-3.8989,-3.9001,-3.8802,-3.8938,-3.8959,-3.9029,-3.9138,-3.915,-3.9055,-3.9048,-3.9235,-3.9255,-3.9277,-3.9493,-3.9335,-3.9346,-3.9354,-3.9835,-3.9842,-3.9848,0,0,0,0,0,0,-3.8664,-3.8698,-3.8982,-3.8853,-3.8889,-3.895,-3.9028,-3.9035,-3.9085,-3.9157,-3.9167,-3.9095,-3.9232,-3.9259,-3.9415,-3.9499,-3.9352,-3.9363,-3.9828,-3.9837,-3.9845,-3.9926,0,0,0,0,0,0,-3.8653,-3.8695,-3.8762,-3.8855,-3.8896,-3.9117,-3.9033,-3.9042,-3.9107,-3.91,-3.9198,-3.9209,-3.923,-3.9397,-3.9427,-3.9514,-3.9373,-3.9821,-3.9832,-3.9842,-3.9917,-3.9937,-3.9954,0,0,0,0,0,-3.8639,-3.8778,-3.8766,-3.88,-3.8981,-3.9122,-3.9145,-3.9166,-3.9113,-3.9182,-3.9229,-3.9206,-3.9485,-3.9413,-3.9447,-3.9539,-3.9816,-3.9829,-3.9841,-3.9908,-3.9933,-3.9953,0,0,0,0,0,0,-3.8694,-3.879,-3.8778,-3.895,-3.9028,-3.9116,-3.9203,-3.9191,-3.9286,-3.9276,-3.9298,-3.932,-3.9479,-3.9524,-3.9442,-3.9717,-3.9643,-3.9663,-3.9682,-3.9706,-3.9724,-3.9711,-3.9383,0,0,0,0,0,-3.8726,-3.8831,-3.891,-3.9054,-3.9094,-3.9142,-3.9204,-3.9213,-3.9295,-3.9328,-3.9385,-3.9466,-3.9571,-3.9641,-3.9742,-3.9922,-3.9944,-4.0002,-4.0021,-4.0036,-4.0054,-4.0154,-4.0182,-3.989,-3.989,-3.989,0,0,-3.8794,-3.8859,-3.8924,-3.9067,-3.9128,-3.9238,-3.917,-3.9288,-3.937,-3.9346,-3.9497,-3.9542,-3.9633,-3.9803,-3.988,-3.9845,-4.0139,-4.0052,-4.0063,-4.0074,-4.017,-4.0198,-4.0222,-3.9899,-3.9897,-3.9896,0,0,-3.8973,-3.9032,-3.916,-3.9223,-3.9317,-3.9348,-3.9379,-3.9468,-3.9498,-3.9649,-3.9634,-3.9731,-3.9913,-3.9979,-4.0037,-4.0242,-4.0226,-4.0274,-4.0373,-4.0471,-4.0494,-4.0514,-4.059,-4.0617,-4.0292,-4.0292,-4.0292,0,-3.9046,-3.921,-3.9228,-3.9349,-3.9413,-3.9395,-3.9525,-3.9586,-3.9708,-3.9753,-3.9711,-3.994,-4.0,-4.0186,-4.0236,-4.0282,-4.0319,-4.0264,-4.0489,-4.051,-4.0529,-4.0602,-4.063,-4.0297,-4.0297,-4.0296,-4.0296,0,-3.9295,-3.941,-3.9502,-3.962,-3.9694,-3.9819,-3.9857,-3.993,-3.9933,-3.9969,-4.0125,-4.0196,-4.0312,-4.0356,-4.036,-4.0544,-4.0519,-4.0483,-4.041,-4.0562,-4.0631,-4.0658,-4.0305,-4.0303,-4.0301,-4.03,0,0,-3.9516,-3.9643,-3.9677,-3.9731,-3.9833,-3.9922,-4.0047,-4.016,-4.0223,-4.0308,-4.0414,-4.0568,-4.0536,-4.0602,-4.0613,-4.0698,-4.0859,-4.0652,-4.0655,-4.069,-4.1068,-4.1096,-4.1128,-4.0848,-4.0853,-4.0857,-4.1061,0,-3.9707,-3.9927,-3.9947,-4.0145,-4.0251,-4.0236,-4.0345,-4.042,-4.0457,-4.0553,-4.0593,-4.0703,-4.0651,-4.0691,-4.0775,-4.0822,-4.0936,-4.0807,-4.0949,-4.0954,-4.0929,-4.1163,-4.1193,-4.1382,-4.1088,-4.1092,-4.1095,0,-3.9959,-4.0052,-4.026,-4.0349,-4.0394,-4.0492,-4.0598,-4.069,-4.0775,-4.0796,-4.0869,-4.0869,-4.0998,-4.0919,-4.1099,-4.1011,-4.107,-4.1102,-4.1109,-4.1125,-4.1035,-4.1188,-4.1442,-4.1471,-4.1137,-4.1134,-4.1131,0,-4.0102,-4.0279,-4.0427,-4.0473,-4.0579,-4.0649,-4.0696,-4.0776,-4.0843,-4.0936,-4.0981,-4.1087,-4.1147,-4.123,-4.1259,-4.1197,-4.1438,-4.136,-4.1461,-4.1461,-4.1514,-4.1511,-4.1784,-4.1548,-4.1548,-4.1547,-4.1547,0,-4.0315,-4.0444,-4.0492,-4.0584,-4.0728,-4.075,-4.0892,-4.0936,-4.1008,-4.1108,-4.1101,-4.1195,-4.1227,-4.1327,-4.1351,-4.1497,-4.1523,-4.1545,-4.155,-4.1547,-4.1545,-4.1588,-4.1577,-4.1555,-4.1553,-4.1552,-4.155,0,-4.05,-4.0537,-4.0698,-4.0785,-4.081,-4.0913,-4.0988,-4.1077,-4.1112,-4.1239,-4.127,-4.1326,-4.1444,-4.148,-4.1622,-4.1638,-4.181,-4.1802,-4.1782,-4.1783,-4.1883,-4.1874,-4.2195,-4.2239,-4.1972,-4.1974,-4.1977,0,-4.0634,-4.0733,-4.0831,-4.0897,-4.0948,-4.1055,-4.1124,-4.1149,-4.1221,-4.1326,-4.1403,-4.1519,-4.1614,-4.1803,-4.1856,-4.1965,-4.1962,-4.2067,-4.1978,-4.1973,-4.1966,-4.1961,-4.1972,-4.2084,-4.2087,-4.2089,-4.2091,0,-4.087,-4.0883,-4.0982,-4.1089,-4.1171,-4.1256,-4.1338,-4.1393,-4.143,-4.1512,-4.1632,-4.1706,-4.1851,-4.1967,-4.2078,-4.2128,-4.2118,-4.2118,-4.2148,-4.2147,-4.2132,-4.2144,-4.183,-4.2111,-4.2109,-4.2108,-4.2107,-4.2106,-4.1035,-4.1123,-4.1206,-4.1317,-4.1381,-4.1458,-4.1546,-4.1592,-4.1693,-4.1813,-4.1821,-4.1952,-4.2036,-4.2184,-4.2239,-4.2342,-4.2312,-4.2354,-4.2366,-4.2376,-4.2386,-4.2113,-4.2362,-4.2362,-4.2361,-4.2361,-4.236,0,-4.1272,-4.1325,-4.1427,-4.1542,-4.1629,-4.161,-4.17,-4.1775,-4.189,-4.1968,-4.2062,-4.2201,-4.2314,-4.2376,-4.2489,-4.256,-4.2558,-4.2589,-4.2586,-4.2598,-4.2405,-4.2369,-4.2589,-4.2589,-4.2589,-4.2589,-4.2589,-4.2589,-4.1406,-4.1554,-4.1578,-4.1758,-4.181,-4.1938,-4.1991,-4.2063,-4.2126,-4.2281,-4.2375,-4.2415,-4.2487,-4.2606,-4.2709,-4.2725,-4.2768,-4.2803,-4.2816,-4.2634,-4.2611,-4.2589,-4.2556,-4.2811,-4.2812,-4.3,-4.3002,-4.3003]}]]